Location: Buckenweiler
(49.0667°N, 10.2500°E)
Time: 11:07:31
(UTC+00:00)

Cosmos 2366 rocket - Pass Details

Date: 18 January 2026
Orbit: 955 x 995 km, 82.9° (Epoch: 15 February)

Event Time Altitude Azimuth Distance (km) Brightness Sun altitude
Rises 05:52:55 0° 189° (S) 3,639 7.1 -11.7°
Reaches altitude 10° 05:55:24 10° 190° (S) 2,702 6.4 -11.3°
Maximum altitude 06:01:36 84° 278° (W) 986 4.0 -10.3°
Drops below altitude 10° 06:07:55 10° 8° (N) 2,749 6.2 -9.3°
Sets 06:10:28 0° 10° (N) 3,707 6.9 -8.9°
